STARLINK-34913, 65369

Orbit data source: Space-Track

STARLINK-34913, 65369 is a payload satellite owned by SpaceX/Seattle (US) in LEO that was launched on Thu, 28 Aug 2025 UTC via an FALCON 9 launch vehicle from the Air Force Eastern Test Range (AFETR). Payload-class satellites include a variety of spacecraft equipped with specific instruments for various scientific and technological missions. These include communications satellites like Starlink; space stations such as the ISS; scientific satellites like the Hubble; Earth observation satellites from companies like Planet Labs, Umbra, and HawkEye 360; GPS; miniature CubeSats for education and research; and military/defense satellites.

Loading next visibility...
Identifier
65369, 2025-190U
Orbit
LEO
Country
Flag of USUS
Related business
Manufacturer
SpaceX/Seattle
Mission
Operational Commercial Communications
Bus & Motor
STARLINK V2MO, Unknown motor
Mass
575 kg wet, ~530 kg dry
Launch date (UTC)
2025-08-28 (10 months ago)
Launch vehicle
FALCON 9
Launch site
Air Force Eastern Test Range (AFETR)
Object type
Payload
Rocket body
Debris
Shape & HBR
Box + 2 Pan, 17.7 m
Radar Cross Section
36.964 m², Large (>1 m²)

Expand to show TLE details & history
Last TLE update: 12 hours ago

TLE from 12 hours ago
0 STARLINK-34913
1 65369U 25190U   26171.36798464  .00016046  00000-0  48481-3 0  9995
2 65369  53.1589  50.6877 0002293  80.0393 280.0868 15.34412963 45485
Epoch: 2026-06-20T08:49Z
TLE epoch observation values (Epoch: 2026-06-20T08:49:53.872Z)
Latitude
-0.00007°
Longitude
9.62957°
Altitude
463.292 km
Speed
7.636 km/s
True Right ascension
03h 22m 45s
True Declination
0° 00' 00"
Sunlit
Object was in daylight at epoch
Visualization orbit readout
Latitude
Unknown
Longitude
Unknown
Altitude
Unknown
Speed
Unknown
Apparent Right ascension
Unknown
Apparent Declination
Unknown
Sunlit
N/A
Visualization observer readout
Local Sidereal Time
07:21:46
Azimuth
Unknown
Elevation
Unknown
Doppler factor
Unknown
Orbital elements
Apogee altitude
464.49 km
Perigee altitude
461.353 km
Semi-major axis
6,841.059 km
Eccentricity
0.00023
Inclination
53.1589°
RAAN
50.6877°
Arg. of periapsis
80.0393°
True anomaly
280.06093°
Mean anomaly
280.0868°
Eccentric anomaly
280.07386°
Mean motion
3.83582 °/min
Orbital period
93.85 mins
BSTAR
0.00048481
Loading maneuver chart data...
Computing Atmospheric mass density...
Loading historical data...
Loading historical data...
Loading historical data...
Loading historical data...
Loading historical data...
Loading historical data...
Loading historical data...

Documentation

Showing up to 5 results
|